FW8726 Weather Reports


time (UTC)temp
C
wind
direction
speed
KPH
gust
KPH
rain 1hr
cm
rain 24hr
cm
rain mn
cm
humidity
%
barometer
mb
20260504033202 12 255 9.7 16.1 0.00 0.00 0.00 44 1014.2
20260504032659 12 227 3.2 11.3 0.00 0.00 0.00 44 1014.0
20260504032156 12 281 11.3 22.5 0.00 0.00 0.00 43 1014.0
20260504031653 12 273 3.2 19.3 0.00 0.00 0.00 43 1013.9
20260504031149 12 332 4.8 17.7 0.00 0.00 0.00 43 1014.0
20260504030646 12 323 6.4 14.5 0.00 0.00 0.00 43 1014.0
20260504030143 12 323 4.8 9.7 0.00 0.00 0.00 43 1014.0
20260504025640 13 168 1.6 14.5 0.00 0.00 0.00 42 1013.9
20260504025137 13 264 9.7 25.7 0.00 0.00 0.00 41 1013.8
20260504024634 13 38 3.2 12.9 0.00 0.00 0.00 41 1013.9
20260504024130 13 271 6.4 19.3 0.00 0.00 0.00 41 1014.1
20260504023627 13 289 6.4 17.7 0.00 0.00 0.00 41 1014.2
20260504023123 13 248 6.4 12.9 0.00 0.00 0.00 41 1013.9
20260504022620 13 292 4.8 14.5 0.00 0.00 0.00 41 1014.0
20260504022116 13 293 3.2 9.7 0.00 0.00 0.00 41 1014.1
20260504021614 13 147 3.2 9.7 0.00 0.00 0.00 41 1014.0
20260504021110 13 269 0.0 11.3 0.00 0.00 0.00 41 1014.2
20260504020607 13 251 4.8 11.3 0.00 0.00 0.00 41 1014.0
20260504020103 13 269 0.0 8.0 0.00 0.00 0.00 40 1013.9
20260504015600 13 269 6.4 14.5 0.00 0.00 0.00 39 1013.9
20260504015056 13 266 3.2 11.3 0.00 0.00 0.00 40 1014.0
20260504014552 13 334 0.0 4.8 0.00 0.00 0.00 40 1013.7
20260504014050 13 271 3.2 12.9 0.00 0.00 0.00 40 1013.8
20260504013547 13 285 1.6 8.0 0.00 0.00 0.00 40 1013.9
20260504013044 13 279 6.4 11.3 0.00 0.00 0.00 40 1013.5
20260504012541 13 315 9.7 16.1 0.00 0.00 0.00 39 1013.4
20260504012039 13 276 6.4 14.5 0.00 0.00 0.00 38 1013.6
20260504011536 13 331 3.2 6.4 0.00 0.00 0.00 37 1013.8
20260504011032 13 260 3.2 17.7 0.00 0.00 0.00 36 1013.6
20260504010527 13 322 3.2 8.0 0.00 0.00 0.00 37 1013.4
20260504010024 13 242 4.8 14.5 0.00 0.00 0.00 36 1013.4
20260504005520 13 331 6.4 12.9 0.00 0.00 0.00 37 1013.3
20260504005018 13 273 0.0 11.3 0.00 0.00 0.00 38 1013.3
20260504004516 13 342 0.0 6.4 0.00 0.00 0.00 40 1013.3
20260504004013 13 279 0.0 6.4 0.00 0.00 0.00 41 1013.3
20260504003509 14 280 3.2 11.3 0.00 0.00 0.00 40 1013.2
20260504003006 14 274 3.2 14.5 0.00 0.00 0.00 39 1013.0
20260504002503 14 307 6.4 17.7 0.00 0.00 0.00 36 1012.9
20260504002000 14 314 4.8 14.5 0.00 0.00 0.00 37 1012.9
20260504001457 15 311 16.1 17.7 0.00 0.00 0.00 36 1012.7
20260504000953 15 324 8.0 24.1 0.00 0.00 0.00 37 1012.7
20260504000451 15 275 11.3 14.5 0.00 0.00 0.00 38 1012.7
20260503235948 15 283 1.6 14.5 0.00 0.00 0.00 37 1012.4
20260503235446 15 281 6.4 9.7 0.00 0.00 0.00 34 1012.6
20260503234943 15 311 4.8 8.0 0.00 0.00 0.00 35 1012.6
20260503234440 15 293 6.4 11.3 0.00 0.00 0.00 34 1012.5
20260503233938 15 296 3.2 11.3 0.00 0.00 0.00 33 1012.2
20260503233434 15 308 9.7 12.9 0.00 0.00 0.00 33 1012.4
20260503232931 16 302 4.8 14.5 0.00 0.00 0.00 32 1012.2
20260503232428 16 287 16.1 19.3 0.00 0.00 0.00 31 1012.2
20260503231926 16 316 8.0 17.7 0.00 0.00 0.00 31 1012.3
20260503231423 16 299 12.9 25.7 0.00 0.00 0.00 30 1012.3
20260503230919 16 333 9.7 17.7 0.00 0.00 0.00 30 1012.0
20260503230416 16 325 3.2 27.4 0.00 0.00 0.00 29 1012.1
20260503225914 16 343 4.8 24.1 0.00 0.00 0.00 29 1012.1
20260503225410 16 330 4.8 20.9 0.00 0.00 0.00 29 1011.9
20260503224906 16 301 8.0 24.1 0.00 0.00 0.00 29 1012.0
20260503224403 16 350 3.2 19.3 0.00 0.00 0.00 29 1012.1
20260503223901 16 305 9.7 19.3 0.00 0.00 0.00 28 1012.0
20260503223359 16 297 22.5 35.4 0.00 0.00 0.00 28 1012.1
20260503222854 16 324 16.1 32.2 0.00 0.00 0.00 28 1011.9
20260503222353 16 341 11.3 43.5 0.00 0.00 0.00 28 1011.7
20260503221850 16 289 12.9 32.2 0.00 0.00 0.00 28 1011.7
20260503221349 16 316 8.0 20.9 0.00 0.00 0.00 28 1011.8
20260503220844 16 88 1.6 20.9 0.00 0.00 0.00 28 1011.7
20260503220341 16 276 11.3 33.8 0.00 0.00 0.00 27 1012.0
20260503215838 16 316 24.1 32.2 0.00 0.00 0.00 27 1012.1
20260503215335 16 286 12.9 30.6 0.00 0.00 0.00 27 1012.1
20260503214833 16 304 12.9 24.1 0.00 0.00 0.00 28 1011.9
20260503214330 15 303 20.9 56.3 0.00 0.00 0.00 28 1011.9
20260503213827 16 307 27.4 37.0 0.00 0.00 0.00 28 1012.0
20260503213325 16 310 24.1 27.4 0.00 0.00 0.00 27 1012.0
20260503212822 16 301 6.4 41.8 0.00 0.00 0.00 29 1011.9
20260503212320 16 303 11.3 30.6 0.00 0.00 0.00 29 1011.9
20260503211817 16 317 16.1 41.8 0.00 0.00 0.00 28 1011.9
20260503211313 16 284 19.3 27.4 0.00 0.00 0.00 29 1011.9
20260503210813 16 291 4.8 24.1 0.00 0.00 0.00 30 1011.9
20260503210311 16 313 14.5 33.8 0.00 0.00 0.00 30 1011.6
20260503205806 16 304 11.3 29.0 0.00 0.00 0.00 29 1011.7
20260503205304 16 307 8.0 30.6 0.00 0.00 0.00 29 1011.8
20260503204759 16 305 38.6 41.8 0.00 0.00 0.00 29 1011.9
20260503204257 16 280 8.0 29.0 0.00 0.00 0.00 30 1011.7
20260503203754 15 326 14.5 32.2 0.00 0.00 0.00 30 1011.6
20260503203251 16 318 12.9 30.6 0.00 0.00 0.00 29 1011.8
20260503202748 16 310 24.1 37.0 0.00 0.00 0.00 30 1011.9
20260503202246 15 300 17.7 33.8 0.00 0.00 0.00 30 1011.9
20260503201744 16 291 6.4 24.1 0.00 0.00 0.00 30 1012.0
20260503201241 15 277 24.1 41.8 0.00 0.00 0.00 30 1012.0
20260503200738 15 322 11.3 35.4 0.00 0.00 0.00 30 1012.2
20260503200234 15 26 8.0 40.2 0.00 0.00 0.00 30 1012.1
20260503195731 15 312 22.5 37.0 0.00 0.00 0.00 31 1012.1
20260503195228 15 295 24.1 38.6 0.00 0.00 0.00 31 1012.2
20260503194726 15 321 12.9 48.3 0.00 0.00 0.00 31 1012.0
20260503194221 15 321 9.7 29.0 0.00 0.00 0.00 31 1012.3
20260503193717 15 338 25.7 25.7 0.00 0.00 0.00 31 1012.2
20260503193214 15 286 17.7 30.6 0.00 0.00 0.00 30 1012.5
20260503192709 15 342 17.7 22.5 0.00 0.00 0.00 31 1012.3
20260503192205 15 305 11.3 32.2 0.00 0.00 0.00 31 1012.4
20260503191701 15 293 17.7 35.4 0.00 0.00 0.00 31 1012.3
20260503191159 15 324 12.9 37.0 0.00 0.00 0.00 33 1012.4
20260503190655 15 313 17.7 32.2 0.00 0.00 0.00 32 1012.5
20260503190152 15 259 12.9 27.4 0.00 0.00 0.00 34 1012.3
20260503185649 14 341 14.5 35.4 0.00 0.00 0.00 33 1012.5
20260503185144 13 312 9.7 45.1 0.00 0.00 0.00 34 1012.7
20260503184639 13 314 25.7 30.6 0.00 0.00 0.00 35 1012.7
20260503184136 13 317 22.5 30.6 0.00 0.00 0.00 36 1012.8
20260503183632 13 301 17.7 25.7 0.00 0.00 0.00 34 1012.8
20260503183130 13 316 14.5 27.4 0.00 0.00 0.00 36 1012.9
20260503182628 13 54 6.4 29.0 0.00 0.00 0.00 36 1012.9
20260503182126 13 321 8.0 32.2 0.00 0.00 0.00 36 1012.8
20260503181623 13 354 8.0 32.2 0.00 0.00 0.00 36 1012.9
20260503181120 13 290 16.1 25.7 0.00 0.00 0.00 36 1012.8
20260503180617 13 327 29.0 46.7 0.00 0.00 0.00 37 1013.1
20260503180115 13 281 22.5 32.2 0.00 0.00 0.00 36 1012.9
20260503175611 13 294 19.3 27.4 0.00 0.00 0.00 37 1013.0
20260503175108 12 335 17.7 41.8 0.00 0.00 0.00 39 1013.1
20260503174605 12 294 20.9 43.5 0.00 0.00 0.00 38 1012.9
20260503174102 12 344 4.8 27.4 0.00 0.00 0.00 40 1012.8
20260503173556 12 269 29.0 37.0 0.00 0.00 0.00 39 1013.1
20260503173053 12 334 16.1 33.8 0.00 0.00 0.00 39 1012.9
20260503172551 12 325 29.0 29.0 0.00 0.00 0.00 38 1012.9
20260503172048 12 292 33.8 33.8 0.00 0.00 0.00 39 1012.8
20260503171544 12 263 6.4 33.8 0.00 0.00 0.00 38 1013.0
20260503171042 12 347 8.0 27.4 0.00 0.00 0.00 38 1013.0
20260503170538 12 308 9.7 37.0 0.00 0.00 0.00 39 1012.9
20260503150918 11 20 22.5 38.6 0.00 0.00 0.00 40 1013.4
20260503150409 11 311 6.4 25.7 0.00 0.00 0.00 40 1013.5
20260503131302 10 279 11.3 20.9 0.00 0.00 0.00 53 1013.5
20260503130800 8 298 9.7 24.1 0.00 0.00 0.00 53 1013.7
20260503130257 8 308 6.4 25.7 0.00 0.00 0.00 54 1013.7
20260503110651 7 10 8.0 22.5 0.00 0.00 0.00 58 1012.9
20260503110148 7 327 11.3 24.1 0.00 0.00 0.00 57 1013.0
20260503100114 7 51 9.7 25.7 0.00 0.00 0.00 53 1011.9
20260503081504 8 3 12.9 17.7 0.00 0.00 0.00 53 1011.8
20260503081001 8 46 11.3 19.3 0.00 0.00 0.00 53 1011.7
20260503080457 8 28 6.4 22.5 0.00 0.00 0.00 53 1011.6
20260503072934 9 27 6.4 17.7 0.00 0.00 0.00 51 1011.5
20260503072431 9 17 8.0 19.3 0.00 0.00 0.00 51 1011.6
20260503071928 9 331 9.7 17.7 0.00 0.00 0.00 50 1011.8
20260503071425 9 69 8.0 14.5 0.00 0.00 0.00 50 1011.7
20260503070921 9 303 0.0 14.5 0.00 0.00 0.00 49 1011.5
20260503070418 9 336 8.0 17.7 0.00 0.00 0.00 49 1011.6
20260503054832 10 84 8.0 16.1 0.00 0.00 0.00 47 1012.0
20260503054327 10 329 4.8 12.9 0.00 0.00 0.00 47 1011.8
20260503053826 11 306 3.2 12.9 0.00 0.00 0.00 47 1012.1
20260503053324 11 275 0.0 14.5 0.00 0.00 0.00 48 1012.0
20260503052820 11 2 8.0 11.3 0.00 0.00 0.00 47 1011.7
20260503052317 11 294 0.0 11.3 0.00 0.00 0.00 47 1011.9
20260503051813 11 355 4.8 16.1 0.00 0.00 0.00 48 1012.3
20260503051309 11 339 4.8 11.3 0.00 0.00 0.00 47 1012.1
20260503050806 11 276 0.0 8.0 0.00 0.00 0.00 47 1012.3
20260503050302 11 354 9.7 20.9 0.00 0.00 0.00 46 1012.3
20260503045800 11 77 16.1 22.5 0.00 0.00 0.00 45 1012.4
20260503045258 11 55 6.4 11.3 0.00 0.00 0.00 42 1012.5
20260503044754 11 98 4.8 16.1 0.00 0.00 0.00 42 1012.3
20260503044251 11 288 3.2 16.1 0.00 0.00 0.00 41 1012.5
20260503043748 11 311 4.8 19.3 0.00 0.00 0.00 41 1012.3
20260503043245 11 0 4.8 24.1 0.00 0.00 0.00 40 1012.2
20260503042741 11 14 9.7 9.7 0.00 0.00 0.00 40 1012.4
20260503042238 11 359 3.2 9.7 0.00 0.00 0.00 41 1012.5
20260503041734 11 304 3.2 22.5 0.00 0.00 0.00 40 1012.3
20260503041232 11 20 8.0 14.5 0.00 0.00 0.00 40 1012.3
20260503040729 11 23 4.8 19.3 0.00 0.00 0.00 39 1012.5
20260503040221 12 12 8.0 11.3 0.00 0.00 0.00 40 1012.5
20260503035718 12 339 3.2 19.3 0.00 0.00 0.00 39 1012.8
20260503035215 12 292 4.8 20.9 0.00 0.00 0.00 39 1012.4
20260503034712 12 323 9.7 17.7 0.00 0.00 0.00 39 1012.3
20260503034209 12 1 8.0 20.9 0.00 0.00 0.00 39 1012.4
20260503033707 12 356 8.0 20.9 0.00 0.00 0.00 39 1012.6